When you browse on this site, cookies collect data to enhance your experience and personalize the content and advertising you see.
Visit our Privacy Policy to learn more. By continuing to use the site, you agree to this use of cookies and data.
  • In Austria
  • List of Countries
  • For 7 days
  • Water Temperature
  • Weather Map
  • News
  • Weather Widgets
  • user-avatar
    Login

    Hourly Weather Zhitkovichi

    Today, 29 May, Friday

    Time Temperature Precipitation Wind Pressure Humidity
    00:00 +11°C° 0.3 mm 1 mps 750 mmHg 93%
    01:00 +11°C° 0.3 mm 1 mps 749 mmHg 94%
    02:00 +11°C° 0 mm 1 mps 749 mmHg 96%
    03:00 +11°C° 1.4 mm 1 mps 749 mmHg 96%
    04:00 +10°C° 1.4 mm 2 mps 748 mmHg 96%
    05:00 +10°C° 1.4 mm 2 mps 748 mmHg 96%
    06:00 +11°C° 0.9 mm 3 mps 748 mmHg 95%
    07:00 +11°C° 0.9 mm 4 mps 748 mmHg 94%
    08:00 +10°C° 0 mm 5 mps 748 mmHg 95%
    09:00 +12°C° 0.2 mm 5 mps 748 mmHg 94%
    10:00 +11°C° 0.2 mm 6 mps 748 mmHg 93%
    11:00 +11°C° 0.2 mm 6 mps 748 mmHg 92%
    12:00 +11°C° 0.1 mm 6 mps 747 mmHg 91%
    13:00 +11°C° 0.1 mm 6 mps 747 mmHg 90%
    14:00 +12°C° 0 mm 5 mps 747 mmHg 89%
    15:00 +12°C° 0 mm 5 mps 747 mmHg 88%
    16:00 +11°C° 0 mm 6 mps 747 mmHg 86%
    17:00 +11°C° 0 mm 6 mps 747 mmHg 85%
    18:00 +11°C° 0 mm 6 mps 747 mmHg 85%
    19:00 +12°C° 0 mm 5 mps 747 mmHg 85%
    20:00 +12°C° 0 mm 5 mps 746 mmHg 84%
    21:00 +12°C° 0 mm 5 mps 746 mmHg 85%
    22:00 +12°C° 0 mm 5 mps 746 mmHg 85%
    23:00 +12°C° 0 mm 5 mps 746 mmHg 86%

    Tomorrow, 30 May, Saturday

    Time Temperature Precipitation Wind Pressure Humidity
    00:00 +12°C° 0.2 mm 5 mps 745 mmHg 87%
    01:00 +12°C° 0.2 mm 5 mps 745 mmHg 89%
    02:00 +12°C° 0.2 mm 5 mps 745 mmHg 91%
    03:00 +10°C° 0.2 mm 5 mps 744 mmHg 92%
    04:00 +10°C° 0.2 mm 5 mps 744 mmHg 94%
    05:00 +10°C° 0.2 mm 5 mps 743 mmHg 95%
    06:00 +12°C° 1.7 mm 5 mps 743 mmHg 96%
    07:00 +12°C° 1.7 mm 5 mps 743 mmHg 96%
    08:00 +12°C° 1.7 mm 5 mps 742 mmHg 96%
    09:00 +12°C° 1.5 mm 5 mps 742 mmHg 96%
    10:00 +13°C° 1.5 mm 5 mps 742 mmHg 96%
    11:00 +13°C° 1.5 mm 5 mps 741 mmHg 97%
    12:00 +13°C° 2.4 mm 5 mps 741 mmHg 96%
    13:00 +13°C° 2.4 mm 5 mps 740 mmHg 96%
    14:00 +13°C° 2.4 mm 6 mps 740 mmHg 96%
    15:00 +13°C° 3.8 mm 6 mps 739 mmHg 96%
    16:00 +14°C° 3.8 mm 5 mps 739 mmHg 96%
    17:00 +14°C° 3.8 mm 5 mps 738 mmHg 96%
    18:00 +14°C° 4 mm 6 mps 737 mmHg 96%
    19:00 +14°C° 4 mm 6 mps 737 mmHg 96%
    20:00 +14°C° 4 mm 7 mps 736 mmHg 96%
    21:00 +14°C° 1.1 mm 7 mps 736 mmHg 96%
    22:00 +14°C° 1.1 mm 7 mps 736 mmHg 96%
    23:00 +14°C° 1.1 mm 7 mps 736 mmHg 95%

    Day after tomorrow, 31 May, Sunday

    Time Temperature Precipitation Wind Pressure Humidity
    00:00 +14°C° 0 mm 7 mps 736 mmHg 94%
    01:00 +12°C° 0 mm 7 mps 736 mmHg 94%
    02:00 +13°C° 0 mm 6 mps 737 mmHg 93%
    03:00 +11°C° 0 mm 6 mps 737 mmHg 93%
    04:00 +12°C° 0 mm 5 mps 738 mmHg 93%
    05:00 +12°C° 0 mm 4 mps 738 mmHg 94%
    06:00 +12°C° 0 mm 4 mps 739 mmHg 91%
    07:00 +13°C° 0 mm 4 mps 740 mmHg 89%
    08:00 +13°C° 0 mm 4 mps 740 mmHg 86%
    09:00 +14°C° 0.1 mm 4 mps 741 mmHg 85%
    10:00 +16°C° 0.1 mm 3 mps 742 mmHg 83%
    11:00 +16°C° 0.1 mm 3 mps 742 mmHg 81%
    12:00 +16°C° 0.4 mm 3 mps 743 mmHg 83%
    13:00 +14°C° 0.4 mm 4 mps 743 mmHg 86%
    14:00 +14°C° 0.4 mm 4 mps 743 mmHg 88%
    15:00 +13°C° 0.4 mm 5 mps 744 mmHg 90%
    16:00 +13°C° 0.4 mm 5 mps 744 mmHg 91%
    17:00 +11°C° 0.4 mm 6 mps 744 mmHg 92%
    18:00 +11°C° 0.3 mm 6 mps 745 mmHg 92%
    19:00 +10°C° 0.3 mm 6 mps 745 mmHg 92%
    20:00 +10°C° 0.3 mm 6 mps 746 mmHg 92%
    21:00 +9°C° 0.1 mm 6 mps 746 mmHg 92%
    22:00 +9°C° 0.1 mm 5 mps 746 mmHg 92%
    23:00 +9°C° 0.1 mm 5 mps 747 mmHg 91%

    1 June, Monday

    Time Temperature Precipitation Wind Pressure Humidity
    00:00 +9°C° 0 mm 5 mps 747 mmHg 91%
    01:00 +8°C° 0 mm 5 mps 747 mmHg 91%
    02:00 +8°C° 0 mm 5 mps 748 mmHg 91%
    03:00 +7°C° 0 mm 5 mps 748 mmHg 90%
    04:00 +6°C° 0 mm 5 mps 748 mmHg 90%
    05:00 +6°C° 0 mm 5 mps 748 mmHg 89%
    06:00 +7°C° 0 mm 5 mps 748 mmHg 81%
    07:00 +8°C° 0 mm 6 mps 749 mmHg 73%
    08:00 +9°C° 0 mm 6 mps 749 mmHg 64%
    09:00 +10°C° 0 mm 6 mps 749 mmHg 62%
    10:00 +11°C° 0 mm 6 mps 749 mmHg 60%
    11:00 +11°C° 0 mm 6 mps 749 mmHg 58%
    12:00 +11°C° 0.1 mm 6 mps 749 mmHg 59%
    13:00 +12°C° 0.1 mm 5 mps 749 mmHg 59%
    14:00 +12°C° 0.1 mm 5 mps 749 mmHg 60%
    15:00 +12°C° 0.1 mm 5 mps 749 mmHg 61%
    16:00 +12°C° 0.1 mm 5 mps 749 mmHg 63%
    17:00 +12°C° 0.1 mm 5 mps 749 mmHg 64%
    18:00 +10°C° 0.1 mm 4 mps 749 mmHg 70%
    19:00 +9°C° 0.1 mm 3 mps 749 mmHg 75%
    20:00 +8°C° 0.1 mm 3 mps 750 mmHg 81%
    21:00 +7°C° 0 mm 3 mps 750 mmHg 84%
    22:00 +5°C° 0 mm 3 mps 750 mmHg 87%
    23:00 +4°C° 0 mm 3 mps 750 mmHg 91%

    2 June, Tuesday

    Time Temperature Precipitation Wind Pressure Humidity
    00:00 +4°C° 0 mm 3 mps 749 mmHg 91%
    01:00 +5°C° 0 mm 3 mps 749 mmHg 92%
    02:00 +5°C° 0 mm 3 mps 749 mmHg 92%
    03:00 +5°C° 0 mm 3 mps 749 mmHg 92%
    04:00 +5°C° 0 mm 3 mps 748 mmHg 93%
    05:00 +7°C° 0 mm 3 mps 748 mmHg 93%
    06:00 +7°C° 0.3 mm 3 mps 748 mmHg 92%
    07:00 +7°C° 0.3 mm 4 mps 748 mmHg 91%
    08:00 +8°C° 0.3 mm 4 mps 748 mmHg 90%
    09:00 +9°C° 0.5 mm 5 mps 748 mmHg 87%
    10:00 +10°C° 0.5 mm 5 mps 747 mmHg 84%
    11:00 +11°C° 0.5 mm 6 mps 747 mmHg 80%
    12:00 +13°C° 0.4 mm 5 mps 747 mmHg 76%
    13:00 +13°C° 0.4 mm 5 mps 746 mmHg 72%
    14:00 +14°C° 0.4 mm 5 mps 746 mmHg 69%
    15:00 +13°C° 0.6 mm 5 mps 745 mmHg 75%
    16:00 +13°C° 0.6 mm 4 mps 745 mmHg 81%
    17:00 +12°C° 0.6 mm 4 mps 745 mmHg 87%
    18:00 +11°C° 0.8 mm 4 mps 744 mmHg 90%
    19:00 +11°C° 0.8 mm 4 mps 744 mmHg 92%
    20:00 +10°C° 0.8 mm 4 mps 744 mmHg 95%
    21:00 +10°C° 1.1 mm 4 mps 743 mmHg 95%
    22:00 +9°C° 1.1 mm 5 mps 743 mmHg 96%
    23:00 +8°C° 1.1 mm 5 mps 742 mmHg 96%

    3 June, Wednesday

    Time Temperature Precipitation Wind Pressure Humidity
    00:00 +8°C° 0.7 mm 5 mps 742 mmHg 96%
    01:00 +9°C° 0.7 mm 5 mps 741 mmHg 95%
    02:00 +9°C° 0.7 mm 5 mps 741 mmHg 95%
    03:00 +9°C° 0.4 mm 5 mps 740 mmHg 96%
    04:00 +9°C° 0.4 mm 5 mps 740 mmHg 96%
    05:00 +10°C° 0.4 mm 4 mps 740 mmHg 97%
    06:00 +10°C° 0.7 mm 4 mps 740 mmHg 97%
    07:00 +11°C° 0.7 mm 4 mps 740 mmHg 97%
    08:00 +11°C° 0.7 mm 4 mps 740 mmHg 97%
    09:00 +12°C° 0.6 mm 4 mps 740 mmHg 93%
    10:00 +13°C° 0.6 mm 4 mps 740 mmHg 90%
    11:00 +14°C° 0.6 mm 4 mps 740 mmHg 87%
    12:00 +15°C° 0.3 mm 4 mps 740 mmHg 77%
    13:00 +16°C° 0.3 mm 5 mps 740 mmHg 68%
    14:00 +17°C° 0.3 mm 5 mps 740 mmHg 58%
    15:00 +18°C° 0 mm 4 mps 740 mmHg 59%
    16:00 +18°C° 0 mm 4 mps 740 mmHg 60%
    17:00 +18°C° 0 mm 4 mps 740 mmHg 61%
    18:00 +16°C° 0.1 mm 3 mps 740 mmHg 69%
    19:00 +13°C° 0.1 mm 3 mps 741 mmHg 77%
    20:00 +13°C° 0.1 mm 2 mps 741 mmHg 85%
    21:00 +12°C° 0 mm 2 mps 741 mmHg 88%
    22:00 +10°C° 0 mm 2 mps 741 mmHg 90%
    23:00 +9°C° 0 mm 2 mps 742 mmHg 93%
    Show more